Weather Roundup
Issued by NWS

Home | Current Version | Previous Version | Graphics & Text | Print | Product List | Glossary Off
Versions: 1 2 3 4 5 6 7 8 9 10 11 12 13 14 15 16 17 18 19 20 21 22 23 24 25 26 27 28 29 30 31 32 33 34 35 36 37 38 39 40 41 42 43 44 45 46 47 48 49 50

000
NZUS93 KARX 121210
HRRWXR

CURRENT HOURLY OBSERVATIONS ACROSS
MUCH OF THE UPPER MISSISSIPPI VALLEY
NATIONAL WEATHER SERVICE LA CROSSE WI
700 AM CDT SAT JUL 12 2014


...SOUTHEAST MINNESOTA...


CITY           SKY/WX    TMP DP  RH WIND       PRES   REMARKS
ROCHESTER      CLOUDY    69  67  93 SW8       30.04F FOG
ROCHESTER/MAYO PTSUNNY   69  67  94 SW7       30.03F
WINONA         CLOUDY    70  66  88 CALM      30.01F
AUSTIN         CLOUDY    70  68  94 CALM      30.02F FOG
ALBERT LEA     CLOUDY    72  70  94 CALM      30.02  FOG
DODGE CENTER   CLOUDY    70  68  94 SW7       30.03F FOG
PRESTON        CLOUDY    69  68  96 W6        30.04F FOG
OWATONNA       CLOUDY    72  68  88 SW7       30.01F FOG
FARIBAULT      CLOUDY    73  66  78 CALM      30.01F HAZE
$$

...ELSEWHERE IN MINNESOTA...


CITY           SKY/WX    TMP DP  RH WIND       PRES   REMARKS
MINNEAPOLIS    CLOUDY    71  69  93 S3        30.00F FOG
INTNL FALLS    SUNNY     57  55  93 CALM      30.01R
DULUTH         PTSUNNY   63  58  83 N5        30.02R
RED WING       CLOUDY    68  66  94 CALM      30.00S FOG
REDWOOD FALLS  CLOUDY    73  71  93 CALM      29.99R FOG
MANKATO        CLOUDY    72  66  83 SW5       30.00F
WORTHINGTON    CLOUDY    73  70  88 SW10      30.02R
FAIRMONT       CLOUDY    72  66  83 S5        30.01F
$$

...SOUTHWEST WISCONSIN...


CITY           SKY/WX    TMP DP  RH WIND       PRES   REMARKS
LA CROSSE      CLOUDY    71  66  84 SE3       30.01S
PRAIRIE DU CHI CLOUDY    69  66  89 CALM      30.03F
BOSCOBEL       CLOUDY    69  66  90 CALM      30.04R
LONE ROCK      CLOUDY    72  66  81 W3        30.03R
PLATTEVILLE    CLOUDY    67  66  94 CALM      30.06R
FORT MC COY    CLOUDY    67  64  93 CALM      30.03S
VIROQUA        FAIR      68  68 100 S3        30.05S
WIS DELLS      CLOUDY    70  64  81 CALM      30.04R
$$

...ELSEWHERE IN WISCONSIN...


CITY           SKY/WX    TMP DP  RH WIND       PRES   REMARKS
MILWAUKEE      PTSUNNY   72  61  68 S8        30.03S
MADISON        CLOUDY    72  64  76 CALM      30.03S
GREEN BAY      CLOUDY    68  62  81 CALM      30.02F
EAU CLAIRE     CLOUDY    69  68  96 CALM      30.01F
BLACK RVR FLS  FAIR      68  67  97 CALM      30.02S
MEDFORD        CLOUDY    66  64  94 W3        30.05S
WAUSAU         CLOUDY    69  63  81 NW5       30.03S
WIS RAPIDS     PTSUNNY   69  63  81 CALM      30.04F
MARSHFIELD     CLOUDY    68  65  90 W3        30.04S
RICE LAKE      CLOUDY    66  64  95 CALM      30.03S FOG
$$

...NORTHEAST IOWA...


CITY           SKY/WX    TMP DP  RH WIND       PRES   REMARKS
WATERLOO       LGT RAIN  71  69  93 NE10      29.97F FOG
DUBUQUE        LGT RAIN  68  67  96 SW6       30.06R
DECORAH          N/A    N/A N/A N/A MISG        N/A
MASON CITY     CLOUDY    70  70 100 NW8       30.04F FOG
CHARLES CITY   CLOUDY    70  70 100 CALM      30.02F FOG
OELWEIN        LGT RAIN  70  70 100 CALM      30.04F
$$

...ELSEWHERE IN IOWA...


CITY           SKY/WX    TMP DP  RH WIND       PRES   REMARKS
DES MOINES     CLOUDY    72  69  90 N5        30.02R
IOWA CITY      LGT RAIN  69  69 100 NW8       30.03F
FORT DODGE     CLOUDY    68  66  94 E3        30.01F
MARSHALLTOWN   CLOUDY    70  70 100 W5        30.01R FOG
CEDAR RAPIDS   LGT RAIN  69  69 100 CALM      30.02R
$$

...NORTHERN ILLINOIS...


CITY           SKY/WX    TMP DP  RH WIND       PRES   REMARKS
CHICAGO-OHARE  LGT RAIN  70  65  84 S5        30.04S
DUPAGE         PTSUNNY   69  65  86 S8        30.04F
CHICAGO-MIDWAY TSTM      70  67  90 S9        30.07R VSB 3/4
MOLINE         TSTM      72  70  94 NW22G30   30.07R FOG
ROCKFORD       CLOUDY    71  64  78 S7        30.05R
STERLING       CLOUDY    72  66  83 CALM      30.03R
PEORIA         CLOUDY    77  71  82 SW8       30.03S
$$

NOTE: "FAIR" INDICATES FEW OR NO CLOUDS BELOW 12,000 FEET WITH NO
SIGNIFICANT WEATHER AND/OR OBSTRUCTIONS TO VISIBILITY. WIND
SPEEDS ARE IN MILES-PER-HOUR.



USA.gov is the U.S. government's official web portal to all federal, state and local government web resources and services.